Time,TemperatureF,DewpointF,PressureIn,WindDirection,WindDirectionDegrees,WindSpeedMPH,WindSpeedGustMPH,Humidity,HourlyPrecipIn,Conditions,Clouds,dailyrainin,SoftwareType,DateUTC
2013-03-27 00:02:00,25.0,5.0,-100.00,NNE,20,7.0,10.0,43,0.00,,,-99.99,,2013-03-27 06:02:00,
2013-03-27 00:12:00,24.0,5.0,-100.00,North,0,4.0,10.0,43,0.00,,,-99.99,,2013-03-27 06:12:00,
2013-03-27 00:22:00,24.0,5.0,-100.00,NE,55,3.0,7.0,44,0.00,,,-99.99,,2013-03-27 06:22:00,
2013-03-27 00:32:00,23.0,5.0,-100.00,NE,35,2.0,6.0,45,0.00,,,-99.99,,2013-03-27 06:32:00,
2013-03-27 00:42:00,24.0,5.0,-100.00,SW,235,1.0,7.0,45,0.00,,,-99.99,,2013-03-27 06:42:00,
2013-03-27 00:52:00,24.0,6.0,-100.00,South,170,4.0,11.0,45,0.00,,,-99.99,,2013-03-27 06:52:00,
2013-03-27 01:02:00,24.0,6.0,-100.00,NNE,15,4.0,11.0,46,0.00,,,-99.99,,2013-03-27 07:02:00,
2013-03-27 01:12:00,24.0,6.0,-100.00,NNE,20,4.0,9.0,46,0.00,,,-99.99,,2013-03-27 07:12:00,
2013-03-27 01:22:00,24.0,7.0,-100.00,NNE,30,4.0,8.0,47,0.00,,,-99.99,,2013-03-27 07:22:00,
2013-03-27 01:32:00,24.0,7.0,-100.00,North,10,7.0,10.0,48,0.00,,,-99.99,,2013-03-27 07:32:00,
2013-03-27 01:42:00,24.0,7.0,-100.00,ENE,60,4.0,7.0,48,0.00,,,-99.99,,2013-03-27 07:42:00,
2013-03-27 01:53:00,24.0,8.0,-100.00,South,185,2.0,8.0,50,0.00,,,-99.99,,2013-03-27 07:53:00,
2013-03-27 02:02:00,23.0,8.0,-100.00,NE,55,3.0,9.0,52,0.00,,,-99.99,,2013-03-27 08:02:00,
2013-03-27 02:12:00,23.0,9.0,-100.00,SSE,150,4.0,7.0,53,0.00,,,-99.99,,2013-03-27 08:12:00,
2013-03-27 02:22:00,23.0,9.0,-100.00,SSE,150,7.0,10.0,54,0.00,,,-99.99,,2013-03-27 08:22:00,
2013-03-27 02:32:00,23.0,10.0,-100.00,SSE,165,10.0,17.0,55,0.00,,,-99.99,,2013-03-27 08:32:00,
2013-03-27 02:43:00,23.0,10.0,-100.00,SSE,160,8.0,14.0,56,0.00,,,-99.99,,2013-03-27 08:43:00,
2013-03-27 02:52:00,22.0,10.0,-100.00,SSE,165,8.0,11.0,58,0.00,,,-99.99,,2013-03-27 08:52:00,
2013-03-27 03:01:00,22.0,10.0,-100.00,SSE,165,4.0,11.0,59,0.00,,,-99.99,,2013-03-27 09:01:00,
2013-03-27 03:12:00,22.0,11.0,-100.00,South,175,3.0,4.0,61,0.00,,,-99.99,,2013-03-27 09:12:00,
2013-03-27 03:22:00,21.0,10.0,-100.00,North,355,1.0,4.0,62,0.00,,,-99.99,,2013-03-27 09:22:00,
2013-03-27 03:32:00,21.0,11.0,-100.00,ESE,105,2.0,5.0,65,0.00,,,-99.99,,2013-03-27 09:32:00,
2013-03-27 03:42:00,20.0,11.0,-100.00,SSW,200,3.0,4.0,67,0.00,,,-99.99,,2013-03-27 09:42:00,
2013-03-27 03:52:00,19.0,11.0,-100.00,South,180,4.0,5.0,69,0.00,,,-99.99,,2013-03-27 09:52:00,
2013-03-27 04:02:00,20.0,11.0,-100.00,South,175,2.0,5.0,70,0.00,,,-99.99,,2013-03-27 10:02:00,
2013-03-27 04:12:00,21.0,13.0,-100.00,South,185,5.0,9.0,70,0.00,,,-99.99,,2013-03-27 10:12:00,
2013-03-27 04:22:00,22.0,13.0,-100.00,South,170,7.0,11.0,69,0.00,,,-99.99,,2013-03-27 10:22:00,
2013-03-27 04:32:00,22.0,14.0,-100.00,SSE,160,9.0,14.0,69,0.00,,,-99.99,,2013-03-27 10:32:00,
2013-03-27 04:42:00,22.0,14.0,-100.00,SSE,160,6.0,11.0,69,0.00,,,-99.99,,2013-03-27 10:42:00,
2013-03-27 04:52:00,22.0,14.0,-100.00,South,185,4.0,10.0,70,0.00,,,-99.99,,2013-03-27 10:52:00,
2013-03-27 05:02:00,22.0,14.0,-100.00,South,175,6.0,12.0,70,0.00,,,-99.99,,2013-03-27 11:02:00,
2013-03-27 05:12:00,22.0,14.0,-100.00,South,180,5.0,12.0,71,0.00,,,-99.99,,2013-03-27 11:12:00,
2013-03-27 05:22:00,22.0,14.0,-100.00,SSW,205,5.0,9.0,72,0.00,,,-99.99,,2013-03-27 11:22:00,
2013-03-27 05:32:00,22.0,14.0,-100.00,SSE,165,5.0,8.0,71,0.00,,,-99.99,,2013-03-27 11:32:00,
2013-03-27 05:42:00,21.0,14.0,-100.00,South,180,2.0,6.0,71,0.00,,,-99.99,,2013-03-27 11:42:00,
2013-03-27 05:52:00,22.0,14.0,-100.00,SW,215,3.0,9.0,70,0.00,,,-99.99,,2013-03-27 11:52:00,
2013-03-27 06:02:00,22.0,14.0,-100.00,South,190,6.0,8.0,70,0.00,,,-99.99,,2013-03-27 12:02:00,
2013-03-27 06:12:00,21.0,13.0,-100.00,South,185,4.0,8.0,70,0.00,,,-99.99,,2013-03-27 12:12:00,
2013-03-27 06:22:00,20.0,13.0,-100.00,South,180,4.0,7.0,71,0.00,,,-99.99,,2013-03-27 12:22:00,
2013-03-27 06:32:00,20.0,12.0,-100.00,SSE,160,2.0,6.0,71,0.00,,,-99.99,,2013-03-27 12:32:00,
2013-03-27 06:42:00,19.0,12.0,-100.00,SSW,205,3.0,7.0,72,0.00,,,-99.99,,2013-03-27 12:42:00,
2013-03-27 06:52:00,19.0,12.0,-100.00,South,170,2.0,4.0,72,0.00,,,-99.99,,2013-03-27 12:52:00,
2013-03-27 07:02:00,19.0,12.0,-100.00,SSW,205,2.0,4.0,72,0.00,,,-99.99,,2013-03-27 13:02:00,
2013-03-27 07:12:00,19.0,12.0,-100.00,South,175,4.0,5.0,72,0.00,,,-99.99,,2013-03-27 13:12:00,
2013-03-27 07:22:00,19.0,12.0,-100.00,South,185,4.0,6.0,72,0.00,,,-99.99,,2013-03-27 13:22:00,
2013-03-27 07:32:00,19.0,11.0,-100.00,South,190,2.0,4.0,72,0.00,,,-99.99,,2013-03-27 13:32:00,
2013-03-27 07:42:00,20.0,12.0,-100.00,South,180,2.0,4.0,71,0.00,,,-99.99,,2013-03-27 13:42:00,
2013-03-27 07:52:00,19.0,11.0,-100.00,South,170,0.0,3.0,71,0.00,,,-99.99,,2013-03-27 13:52:00,
2013-03-27 08:02:00,20.0,12.0,-100.00,North,10,1.0,4.0,71,0.00,,,-99.99,,2013-03-27 14:02:00,
2013-03-27 08:12:00,20.0,12.0,-100.00,NNE,25,1.0,6.0,70,0.00,,,-99.99,,2013-03-27 14:12:00,
2013-03-27 08:22:00,21.0,13.0,-100.00,NNE,25,3.0,7.0,69,0.00,,,-99.99,,2013-03-27 14:22:00,
2013-03-27 08:32:00,21.0,12.0,-100.00,East,85,2.0,9.0,68,0.00,,,-99.99,,2013-03-27 14:32:00,
2013-03-27 08:42:00,21.0,12.0,-100.00,SE,140,4.0,6.0,67,0.00,,,-99.99,,2013-03-27 14:42:00,
2013-03-27 08:52:00,22.0,12.0,-100.00,ESE,120,3.0,10.0,65,0.00,,,-99.99,,2013-03-27 14:52:00,
2013-03-27 09:02:00,23.0,13.0,-100.00,WSW,240,2.0,11.0,64,0.00,,,-99.99,,2013-03-27 15:02:00,
2013-03-27 09:12:00,27.0,14.0,-100.00,SE,140,2.0,9.0,58,0.00,,,-99.99,,2013-03-27 15:12:00,
2013-03-27 09:22:00,29.0,14.0,-100.00,ESE,115,3.0,7.0,53,0.00,,,-99.99,,2013-03-27 15:22:00,
2013-03-27 09:33:00,28.0,12.0,-100.00,ESE,120,7.0,12.0,51,0.00,,,-99.99,,2013-03-27 15:33:00,
2013-03-27 09:42:00,28.0,12.0,-100.00,NNE,25,2.0,12.0,50,0.00,,,-99.99,,2013-03-27 15:42:00,
2013-03-27 09:52:00,29.0,12.0,-100.00,NE,50,2.0,9.0,48,0.00,,,-99.99,,2013-03-27 15:52:00,
2013-03-27 10:02:00,29.0,12.0,-100.00,NE,50,4.0,10.0,47,0.00,,,-99.99,,2013-03-27 16:02:00,
2013-03-27 10:13:00,29.0,11.0,-100.00,North,355,4.0,12.0,46,0.00,,,-99.99,,2013-03-27 16:13:00,
2013-03-27 10:22:00,29.0,11.0,-100.00,NE,45,7.0,12.0,44,0.00,,,-99.99,,2013-03-27 16:22:00,
2013-03-27 10:32:00,30.0,11.0,-100.00,ENE,75,4.0,12.0,44,0.00,,,-99.99,,2013-03-27 16:32:00,
2013-03-27 10:42:00,29.0,10.0,-100.00,NNE,30,6.0,15.0,43,0.00,,,-99.99,,2013-03-27 16:42:00,
2013-03-27 10:52:00,30.0,10.0,-100.00,North,0,5.0,17.0,42,0.00,,,-99.99,,2013-03-27 16:52:00,
2013-03-27 11:02:00,33.0,11.0,-100.00,ENE,75,4.0,9.0,39,0.00,,,-99.99,,2013-03-27 17:02:00,
2013-03-27 11:12:00,32.0,10.0,-100.00,South,185,3.0,10.0,39,0.00,,,-99.99,,2013-03-27 17:12:00,
2013-03-27 11:22:00,33.0,10.0,-100.00,South,180,3.0,15.0,37,0.00,,,-99.99,,2013-03-27 17:22:00,
2013-03-27 11:32:00,35.0,11.0,-100.00,SSE,150,6.0,11.0,37,0.00,,,-99.99,,2013-03-27 17:32:00,
2013-03-27 11:44:00,34.0,11.0,-100.00,South,175,4.0,14.0,37,0.00,,,-99.99,,2013-03-27 17:44:00,
2013-03-27 11:52:00,34.0,11.0,-100.00,SW,225,7.0,16.0,37,0.00,,,-99.99,,2013-03-27 17:52:00,
2013-03-27 12:02:00,34.0,10.0,-100.00,North,5,5.0,14.0,36,0.00,,,-99.99,,2013-03-27 18:02:00,
2013-03-27 12:12:00,33.0,9.0,-100.00,NNE,20,4.0,14.0,35,0.00,,,-99.99,,2013-03-27 18:12:00,
2013-03-27 12:22:00,35.0,10.0,-100.00,SE,135,6.0,13.0,35,0.00,,,-99.99,,2013-03-27 18:22:00,
2013-03-27 12:32:00,35.0,10.0,-100.00,NNE,20,3.0,16.0,34,0.00,,,-99.99,,2013-03-27 18:32:00,
2013-03-27 12:42:00,33.0,8.0,-100.00,North,0,10.0,17.0,34,0.00,,,-99.99,,2013-03-27 18:42:00,
2013-03-27 12:52:00,35.0,9.0,-100.00,East,90,2.0,18.0,34,0.00,,,-99.99,,2013-03-27 18:52:00,
2013-03-27 13:02:00,34.0,8.0,-100.00,NNE,30,7.0,14.0,33,0.00,,,-99.99,,2013-03-27 19:02:00,
2013-03-27 13:12:00,33.0,8.0,-100.00,NE,50,6.0,16.0,33,0.00,,,-99.99,,2013-03-27 19:12:00,
2013-03-27 13:22:00,35.0,9.0,-100.00,NNE,25,4.0,14.0,33,0.00,,,-99.99,,2013-03-27 19:22:00,
2013-03-27 13:32:00,34.0,8.0,-100.00,NNE,20,10.0,21.0,33,0.00,,,-99.99,,2013-03-27 19:32:00,
2013-03-27 13:42:00,35.0,9.0,-100.00,East,100,6.0,23.0,32,0.00,,,-99.99,,2013-03-27 19:42:00,
2013-03-27 13:52:00,35.0,8.0,-100.00,NNE,20,4.0,22.0,32,0.00,,,-99.99,,2013-03-27 19:52:00,
2013-03-27 14:02:00,34.0,7.0,-100.00,North,0,7.0,15.0,32,0.00,,,-99.99,,2013-03-27 20:02:00,
2013-03-27 14:12:00,34.0,7.0,-100.00,SE,125,7.0,19.0,32,0.00,,,-99.99,,2013-03-27 20:12:00,
2013-03-27 14:22:00,35.0,8.0,-100.00,NE,40,7.0,13.0,31,0.00,,,-99.99,,2013-03-27 20:22:00,
2013-03-27 14:32:00,35.0,8.0,-100.00,NNE,15,10.0,21.0,31,0.00,,,-99.99,,2013-03-27 20:32:00,
2013-03-27 14:42:00,35.0,8.0,-100.00,NE,40,7.0,12.0,32,0.00,,,-99.99,,2013-03-27 20:42:00,
2013-03-27 14:52:00,34.0,8.0,-100.00,North,0,6.0,19.0,32,0.00,,,-99.99,,2013-03-27 20:52:00,
2013-03-27 15:02:00,34.0,8.0,-100.00,North,0,13.0,24.0,32,0.00,,,-99.99,,2013-03-27 21:02:00,
2013-03-27 15:12:00,35.0,8.0,-100.00,North,0,6.0,24.0,31,0.00,,,-99.99,,2013-03-27 21:12:00,
2013-03-27 15:22:00,36.0,9.0,-100.00,North,5,4.0,19.0,31,0.00,,,-99.99,,2013-03-27 21:22:00,
2013-03-27 15:32:00,36.0,8.0,-100.00,SE,130,2.0,17.0,31,0.00,,,-99.99,,2013-03-27 21:32:00,
2013-03-27 15:43:00,36.0,8.0,-100.00,East,100,10.0,25.0,31,0.00,,,-99.99,,2013-03-27 21:43:00,
2013-03-27 15:52:00,36.0,9.0,-100.00,NNE,20,4.0,14.0,31,0.00,,,-99.99,,2013-03-27 21:52:00,
2013-03-27 16:03:00,35.0,8.0,-100.00,ENE,60,7.0,19.0,31,0.00,,,-99.99,,2013-03-27 22:03:00,
2013-03-27 16:12:00,36.0,8.0,-100.00,East,95,7.0,14.0,30,0.00,,,-99.99,,2013-03-27 22:12:00,
2013-03-27 16:23:00,36.0,8.0,-100.00,North,5,6.0,10.0,30,0.00,,,-99.99,,2013-03-27 22:23:00,
2013-03-27 16:33:00,35.0,8.0,-100.00,NE,45,7.0,17.0,30,0.00,,,-99.99,,2013-03-27 22:33:00,
2013-03-27 16:42:00,35.0,8.0,-100.00,NE,40,9.0,17.0,31,0.00,,,-99.99,,2013-03-27 22:42:00,
2013-03-27 16:52:00,35.0,8.0,-100.00,North,10,7.0,21.0,31,0.00,,,-99.99,,2013-03-27 22:52:00,
2013-03-27 17:02:00,35.0,8.0,-100.00,NNE,25,11.0,18.0,31,0.00,,,-99.99,,2013-03-27 23:02:00,
2013-03-27 17:12:00,35.0,8.0,-100.00,North,350,6.0,18.0,31,0.00,,,-99.99,,2013-03-27 23:12:00,
2013-03-27 17:22:00,35.0,7.0,-100.00,NE,50,6.0,15.0,31,0.00,,,-99.99,,2013-03-27 23:22:00,
2013-03-27 17:32:00,35.0,8.0,-100.00,ESE,105,2.0,13.0,32,0.00,,,-99.99,,2013-03-27 23:32:00,
2013-03-27 17:42:00,34.0,7.0,-100.00,NE,55,4.0,16.0,31,0.00,,,-99.99,,2013-03-27 23:42:00,
2013-03-27 17:52:00,33.0,7.0,-100.00,East,90,7.0,15.0,32,0.00,,,-99.99,,2013-03-27 23:52:00,
2013-03-27 18:02:00,34.0,8.0,-100.00,NNE,15,7.0,12.0,33,0.00,,,-99.99,,2013-03-28 00:02:00,
2013-03-27 18:12:00,33.0,7.0,-100.00,East,80,5.0,12.0,32,0.00,,,-99.99,,2013-03-28 00:12:00,
2013-03-27 18:22:00,33.0,7.0,-100.00,NNE,30,3.0,11.0,33,0.00,,,-99.99,,2013-03-28 00:22:00,
2013-03-27 18:32:00,33.0,7.0,-100.00,NNE,30,4.0,12.0,32,0.00,,,-99.99,,2013-03-28 00:32:00,
2013-03-27 18:42:00,32.0,7.0,-100.00,NNE,30,4.0,10.0,33,0.00,,,-99.99,,2013-03-28 00:42:00,
2013-03-27 18:52:00,31.0,6.0,-100.00,NE,55,3.0,9.0,34,0.00,,,-99.99,,2013-03-28 00:52:00,
2013-03-27 19:02:00,32.0,7.0,-100.00,ENE,70,3.0,9.0,33,0.00,,,-99.99,,2013-03-28 01:02:00,
2013-03-27 19:12:00,31.0,6.0,-100.00,North,0,3.0,7.0,34,0.00,,,-99.99,,2013-03-28 01:12:00,
2013-03-27 19:22:00,31.0,6.0,-100.00,NE,40,4.0,6.0,34,0.00,,,-99.99,,2013-03-28 01:22:00,
2013-03-27 19:32:00,31.0,6.0,-100.00,SSW,195,1.0,6.0,34,0.00,,,-99.99,,2013-03-28 01:32:00,
2013-03-27 19:42:00,30.0,6.0,-100.00,NNE,25,0.0,4.0,35,0.00,,,-99.99,,2013-03-28 01:42:00,
2013-03-27 19:52:00,29.0,6.0,-100.00,SSE,160,2.0,4.0,37,0.00,,,-99.99,,2013-03-28 01:52:00,
2013-03-27 20:02:00,28.0,6.0,-100.00,SSE,165,2.0,5.0,37,0.00,,,-99.99,,2013-03-28 02:02:00,
2013-03-27 20:12:00,28.0,6.0,-100.00,SSE,165,2.0,5.0,37,0.00,,,-99.99,,2013-03-28 02:12:00,
2013-03-27 20:22:00,28.0,6.0,-100.00,SSW,195,2.0,4.0,38,0.00,,,-99.99,,2013-03-28 02:22:00,
2013-03-27 20:32:00,27.0,6.0,-100.00,South,185,2.0,3.0,39,0.00,,,-99.99,,2013-03-28 02:32:00,
2013-03-27 20:42:00,27.0,6.0,-100.00,South,185,2.0,3.0,39,0.00,,,-99.99,,2013-03-28 02:42:00,
2013-03-27 20:52:00,27.0,6.0,-100.00,South,185,2.0,3.0,39,0.00,,,-99.99,,2013-03-28 02:52:00,
2013-03-27 21:02:00,27.0,6.0,-100.00,South,185,2.0,4.0,40,0.00,,,-99.99,,2013-03-28 03:02:00,
2013-03-27 21:12:00,27.0,6.0,-100.00,South,190,2.0,3.0,40,0.00,,,-99.99,,2013-03-28 03:12:00,
2013-03-27 21:22:00,27.0,6.0,-100.00,South,180,1.0,2.0,40,0.00,,,-99.99,,2013-03-28 03:22:00,
2013-03-27 21:33:00,27.0,6.0,-100.00,SSE,150,2.0,2.0,40,0.00,,,-99.99,,2013-03-28 03:33:00,
2013-03-27 21:43:00,27.0,6.0,-100.00,SSE,155,1.0,3.0,41,0.00,,,-99.99,,2013-03-28 03:43:00,
2013-03-27 21:52:00,27.0,6.0,-100.00,South,180,1.0,2.0,41,0.00,,,-99.99,,2013-03-28 03:52:00,
2013-03-27 22:02:00,28.0,7.0,-100.00,South,185,1.0,2.0,40,0.00,,,-99.99,,2013-03-28 04:02:00,
2013-03-27 22:12:00,27.0,7.0,-100.00,SSW,195,1.0,3.0,40,0.00,,,-99.99,,2013-03-28 04:12:00,
2013-03-27 22:22:00,27.0,7.0,-100.00,SSE,165,3.0,4.0,41,0.00,,,-99.99,,2013-03-28 04:22:00,
2013-03-27 22:32:00,27.0,7.0,-100.00,South,190,2.0,5.0,41,0.00,,,-99.99,,2013-03-28 04:32:00,
2013-03-27 22:42:00,27.0,7.0,-100.00,SSE,165,1.0,3.0,41,0.00,,,-99.99,,2013-03-28 04:42:00,
2013-03-27 22:52:00,27.0,7.0,-100.00,NNW,335,0.0,4.0,41,0.00,,,-99.99,,2013-03-28 04:52:00,
2013-03-27 23:02:00,27.0,6.0,-100.00,SSW,200,1.0,3.0,41,0.00,,,-99.99,,2013-03-28 05:02:00,
2013-03-27 23:12:00,26.0,6.0,-100.00,South,180,2.0,2.0,42,0.00,,,-99.99,,2013-03-28 05:12:00,
2013-03-27 23:22:00,27.0,7.0,-100.00,ENE,60,2.0,5.0,41,0.00,,,-99.99,,2013-03-28 05:22:00,
2013-03-27 23:32:00,27.0,6.0,-100.00,NNW,335,2.0,5.0,40,0.00,,,-99.99,,2013-03-28 05:32:00,
2013-03-27 23:42:00,27.0,6.0,-100.00,ENE,75,2.0,3.0,40,0.00,,,-99.99,,2013-03-28 05:42:00,
2013-03-27 23:52:00,26.0,6.0,-100.00,NE,50,1.0,2.0,41,0.00,,,-99.99,,2013-03-28 05:52:00,